STARLINK-5191, 54763

Orbit data source: Space-Track

STARLINK-5191, 54763 is a payload satellite owned by SpaceX/Seattle (US) in LEO that was launched on Sat, 17 Dec 2022 UTC via an FALCON 9 launch vehicle from the Air Force Eastern Test Range (AFETR). Payload-class satellites include a variety of spacecraft equipped with specific instruments for various scientific and technological missions. These include communications satellites like Starlink; space stations such as the ISS; scientific satellites like the Hubble; Earth observation satellites from companies like Planet Labs, Umbra, and HawkEye 360; GPS; miniature CubeSats for education and research; and military/defense satellites.

Loading next visibility...
Identifier
54763, 2022-175F
Orbit
LEO
Country
Flag of USUS
Related business
Manufacturer
SpaceX/Seattle
Mission
Operational Commercial Communications
Bus & Motor
STARLINK, Unknown motor
Mass
305 kg wet, ~290 kg dry
Launch date (UTC)
2022-12-17 (4 years ago)
Launch vehicle
FALCON 9
Launch site
Air Force Eastern Test Range (AFETR)
Object type
Payload
Rocket body
Debris
Shape & HBR
Box + 1 Pan, 10.1 m
Radar Cross Section
13.562 m², Large (>1 m²)

Expand to show TLE details & history
Last TLE update: 3 days ago

TLE from 3 days ago
0 STARLINK-5191
1 54763U 22175F   26170.67795587  .00000118  00000-0  25496-4 0  9992
2 54763  53.1613 306.3146 0001095  85.3653 274.7464 15.08831837195311
Epoch: 2026-06-19T16:16Z
TLE epoch observation values (Epoch: 2026-06-19T16:16:15.387Z)
Latitude
0.00004°
Longitude
154.34702°
Altitude
540.597 km
Speed
7.593 km/s
True Right ascension
20h 25m 15s
True Declination
0° 00' 00"
Sunlit
Object was in full shadow at epoch
Visualization orbit readout
Latitude
Unknown
Longitude
Unknown
Altitude
Unknown
Speed
Unknown
Apparent Right ascension
Unknown
Apparent Declination
Unknown
Sunlit
N/A
Visualization observer readout
Local Sidereal Time
21:30:40
Azimuth
Unknown
Elevation
Unknown
Doppler factor
Unknown
Orbital elements
Apogee altitude
540.78 km
Perigee altitude
539.265 km
Semi-major axis
6,918.159 km
Eccentricity
0.00011
Inclination
53.1613°
RAAN
306.3146°
Arg. of periapsis
85.3653°
True anomaly
274.7339°
Mean anomaly
274.7464°
Eccentric anomaly
274.74015°
Mean motion
3.77188 °/min
Orbital period
95.44 mins
BSTAR
0.000025496
Loading maneuver chart data...
Computing Atmospheric mass density...
Loading historical data...
Loading historical data...
Loading historical data...
Loading historical data...
Loading historical data...
Loading historical data...
Loading historical data...

Documentation

Showing up to 5 results
|